Regional Weather Roundup
Issued by NWS

Home | Current Version | Previous Version | Text Only | Print | Product List | Glossary Off
Versions: 1 2 3 4 5 6 7 8 9 10 11 12 13 14 15 16 17 18 19 20 21 22 23 24 25 26 27 28 29 30 31 32 33 34 35 36 37 38 39 40 41 42 43 44 45 46 47 48 49 50

000
ASUS43 KIND 250559
RWRIN

WEATHER ROUNDUP FOR INDIANA
NATIONAL WEATHER SERVICE INDIANAPOLIS IN
200 AM EDT SAT OCT 25 2014

NOTE: "FAIR" INDICATES FEW OR NO CLOUDS BELOW 12,000 FEET WITH NO
SIGNIFICANT WEATHER AND/OR OBSTRUCTIONS TO VISIBILITY.

* - STATION DOES NOT REPORT WEATHER SUCH AS PRECIPITATION OR FOG.

+ - STATION NOT QUALITY CONTROLLED BY THE NATIONAL WEATHER SERVICE.
    USE DATA WITH CAUTION...ESPECIALLY DEWPOINT AND RELATIVE
    HUMIDITY OBSERVATIONS.

INZ001>003-010>013-019-020-250700-
NORTHWEST INDIANA

CITY           SKY/WX    TMP DP  RH WIND       PRES   REMARKS
VALPARAISO     NOT AVBL

$$

LMZ046-743>745-250700-
SOUTHERN LAKE MICHIGAN

STATION/POSITION TIME  TEMP WIND        PRES
                       AIR  DIR/SP/G
                 (UTC) (F)  (DEG/KT/KT) (MB)
MICHIGAN CITY    0500   58  170/  5/  7   N/A

$$

INZ004-005-014>016-021>024-250700-
NORTH CENTRAL INDIANA

CITY           SKY/WX    TMP DP  RH WIND       PRES   REMARKS
GOSHEN         CLOUDY    53  50  89 W6        29.95S
6HR MIN TEMP:  47; 6HR MAX TEMP:  55;

SOUTH BEND     CLOUDY    54  48  80 SW8       29.96S
6HR MIN TEMP:  49; 6HR MAX TEMP:  54; 6HR PCP: TRACE;


$$

INZ006>009-017-018-025>027-250700-
NORTHEAST INDIANA

CITY           SKY/WX    TMP DP  RH WIND       PRES   REMARKS
ANGOLA *+      CLOUDY    43  39  87 CALM      29.96S VSB 1/4
FORT WAYNE     PTCLDY    48  46  93 SW6       29.98S
6HR MIN TEMP:  48; 6HR MAX TEMP:  52;


$$

INZ028-029-035-036-043>045-051>053-250700-
WEST CENTRAL INDIANA

CITY           SKY/WX    TMP DP  RH WIND       PRES   REMARKS
GREENCASTLE +  PTCLDY    46  46 100 S3        30.01F FOG
LAFAYETTE      CLOUDY    52  51  97 CALM      29.97R
6HR MIN TEMP:  50; 6HR MAX TEMP:  55;

TERRE HAUTE    PTCLDY    48  47  96 CALM      30.00F
6HR MIN TEMP:  48; 6HR MAX TEMP:  56;


$$

INZ030>032-037>040-046>048-054>057-064-065-250700-
CENTRAL INDIANA

CITY           SKY/WX    TMP DP  RH WIND       PRES   REMARKS
INDIANAPOLIS   MOCLDY    50  48  93 S6        29.99F
6HR MIN TEMP:  50; 6HR MAX TEMP:  59;

-EAGLE CREEK   MOCLDY    50  48  93 S3        29.99F
6HR MIN TEMP:  50; 6HR MAX TEMP:  58;

KOKOMO *+      MOCLDY    52  46  82 S6        29.98S
MT COMFORT *+  MOCLDY    48 N/A N/A S5        30.01S
SHELBYVILLE    MOCLDY    51  46  83 S6        30.01F
6HR MIN TEMP:  50; 6HR MAX TEMP:  59;


$$

INZ033-034-041-042-049-050-058-059-250700-
EAST CENTRAL INDIANA

CITY           SKY/WX    TMP DP  RH WIND       PRES   REMARKS
MUNCIE         PTCLDY    53  48  83 SW6       29.99F
6HR MIN TEMP:  52; 6HR MAX TEMP:  58;


$$

INZ060-061-067>069-081>083-085>088-250700-
SOUTHWEST INDIANA

CITY           SKY/WX    TMP DP  RH WIND       PRES   REMARKS
EVANSVILLE     MOCLDY    53  50  89 SW3       30.05S
6HR MIN TEMP:  52; 6HR MAX TEMP:  61;

HUNTINGBURG *+ PTCLDY    50  46  87 SW3       30.05S
6HR MIN TEMP:  50; 6HR MAX TEMP:  57;


$$

INZ062-063-066-070>080-084-089>092-250700-
SOUTH CENTRAL AND SOUTHEAST INDIANA

CITY           SKY/WX    TMP DP  RH WIND       PRES   REMARKS
BLOOMINGTON    PTCLDY    49  47  93 CALM      30.03S
6HR MIN TEMP:  47; 6HR MAX TEMP:  54;


$$




USA.gov is the U.S. government's official web portal to all federal, state and local government web resources and services.